カタログに戻る

STARLINK-37855

運用中通信SSO
NORAD 69493·PAYLOAD·🇺🇸 United States

打ち上げ Jun 11, 2026 から Vandenberg Space Force Base

Loading…

次のパス (今後24時間)

TLE

最新Source: CelesTrak SupGP

元期: Sep 15, 2026, 04:32 UTC

1 69493C 26131R   26258.18937500 -.00057785  00000+0 -17942-2 0  2586
2 69493  97.2831 279.1645 0001243  90.1223 344.6691 15.33462009    11

AllMySatでSTARLINK-37855をリアルタイム追跡

Download on the App Store